| time (UTC) | temp F | wind direction | speed MPH | gust MPH | rain 1hr in | rain 24hr in | rain mn in | humidity % | barometer mb |
| 20260510105020 | 60 | 42 | 12.0 | 18.0 | 0.00 | 0.00 | 0.00 | 65 | 1013.1 |
| 20260510104537 | 60 | 60 | 11.0 | 18.0 | 0.00 | 0.00 | 0.00 | 65 | 1013.1 |
| 20260510104024 | 60 | 42 | 10.0 | 18.0 | 0.00 | 0.00 | 0.00 | 65 | 1013.0 |
| 20260510103521 | 60 | 39 | 11.0 | 17.0 | 0.00 | 0.00 | 0.00 | 65 | 1013.1 |
| 20260510103039 | 60 | 32 | 10.0 | 17.0 | 0.00 | 0.00 | 0.00 | 65 | 1013.0 |
| 20260510102524 | 60 | 10 | 9.0 | 16.0 | 0.00 | 0.00 | 0.00 | 66 | 1013.0 |
| 20260510102020 | 60 | 52 | 10.0 | 16.0 | 0.00 | 0.00 | 0.00 | 66 | 1012.8 |
| 20260510101543 | 60 | 41 | 9.0 | 14.0 | 0.00 | 0.00 | 0.00 | 66 | 1012.5 |
| 20260510101022 | 60 | 36 | 9.0 | 16.0 | 0.00 | 0.00 | 0.00 | 67 | 1012.5 |
| 20260510100522 | 60 | 38 | 10.0 | 18.0 | 0.00 | 0.00 | 0.00 | 67 | 1012.5 |
| 20260510100048 | 59 | 40 | 11.0 | 18.0 | 0.00 | 0.00 | 0.00 | 67 | 1012.6 |
| 20260510095521 | 59 | 44 | 11.0 | 18.0 | 0.00 | 0.00 | 0.00 | 68 | 1012.5 |
| 20260510095020 | 59 | 43 | 8.0 | 14.0 | 0.00 | 0.00 | 0.00 | 69 | 1012.2 |
| 20260510094544 | 59 | 53 | 8.0 | 13.0 | 0.00 | 0.00 | 0.00 | 70 | 1012.1 |
| 20260510094023 | 59 | 66 | 8.0 | 13.0 | 0.00 | 0.00 | 0.00 | 70 | 1012.2 |
| 20260510093524 | 59 | 42 | 9.0 | 13.0 | 0.00 | 0.00 | 0.00 | 71 | 1012.1 |
| 20260510093040 | 59 | 32 | 8.0 | 12.0 | 0.00 | 0.00 | 0.00 | 71 | 1012.0 |
| 20260510092523 | 59 | 57 | 7.0 | 12.0 | 0.00 | 0.00 | 0.00 | 70 | 1011.8 |
| 20260510092025 | 59 | 39 | 8.0 | 13.0 | 0.00 | 0.00 | 0.00 | 70 | 1011.9 |
| 20260510091538 | 59 | 34 | 8.0 | 15.0 | 0.00 | 0.00 | 0.00 | 69 | 1011.9 |
| 20260510091023 | 60 | 21 | 9.0 | 15.0 | 0.00 | 0.00 | 0.00 | 69 | 1011.8 |
| 20260510090524 | 60 | 20 | 10.0 | 15.0 | 0.00 | 0.00 | 0.00 | 69 | 1011.7 |
| 20260510090036 | 60 | 19 | 10.0 | 15.0 | 0.00 | 0.00 | 0.00 | 69 | 1011.7 |
| 20260510085521 | 61 | 13 | 7.0 | 13.0 | 0.00 | 0.00 | 0.00 | 68 | 1011.6 |
| 20260510085021 | 61 | 20 | 10.0 | 14.0 | 0.00 | 0.00 | 0.00 | 68 | 1011.5 |
| 20260510084542 | 61 | 19 | 9.0 | 14.0 | 0.00 | 0.00 | 0.00 | 67 | 1011.5 |
| 20260510084021 | 61 | 5 | 7.0 | 13.0 | 0.00 | 0.00 | 0.00 | 67 | 1011.7 |
| 20260510083523 | 61 | 360 | 7.0 | 12.0 | 0.00 | 0.00 | 0.00 | 67 | 1011.7 |
| 20260510083038 | 61 | 360 | 6.0 | 12.0 | 0.00 | 0.00 | 0.00 | 67 | 1011.7 |
| 20260510082520 | 61 | 9 | 8.0 | 12.0 | 0.00 | 0.00 | 0.00 | 67 | 1011.7 |
| 20260510082022 | 61 | 39 | 8.0 | 11.0 | 0.00 | 0.00 | 0.00 | 66 | 1011.4 |
| 20260510081541 | 62 | 34 | 7.0 | 11.0 | 0.00 | 0.00 | 0.00 | 65 | 1011.3 |
| 20260510081022 | 62 | 40 | 7.0 | 11.0 | 0.00 | 0.00 | 0.00 | 65 | 1011.2 |
| 20260510080523 | 62 | 50 | 6.0 | 11.0 | 0.00 | 0.00 | 0.00 | 65 | 1011.2 |
| 20260510080052 | 62 | 42 | 6.0 | 11.0 | 0.00 | 0.00 | 0.00 | 64 | 1011.1 |
| 20260510075526 | 63 | 44 | 6.0 | 11.0 | 0.00 | 0.00 | 0.00 | 64 | 1010.9 |
| 20260510075022 | 63 | 57 | 7.0 | 11.0 | 0.00 | 0.00 | 0.00 | 64 | 1011.0 |
| 20260510074539 | 63 | 51 | 5.0 | 11.0 | 0.00 | 0.00 | 0.00 | 63 | 1011.1 |
| 20260510074020 | 63 | 44 | 7.0 | 11.0 | 0.00 | 0.00 | 0.00 | 63 | 1011.0 |
| 20260510073521 | 64 | 53 | 7.0 | 12.0 | 0.00 | 0.00 | 0.00 | 62 | 1011.1 |
| 20260510073042 | 64 | 50 | 7.0 | 12.0 | 0.00 | 0.00 | 0.00 | 62 | 1011.2 |
| 20260510072521 | 64 | 53 | 8.0 | 12.0 | 0.00 | 0.00 | 0.00 | 61 | 1011.1 |
| 20260510072021 | 64 | 69 | 6.0 | 11.0 | 0.00 | 0.00 | 0.00 | 61 | 1011.1 |
| 20260510071539 | 64 | 86 | 8.0 | 12.0 | 0.00 | 0.00 | 0.00 | 62 | 1011.1 |
| 20260510071020 | 64 | 71 | 6.0 | 12.0 | 0.00 | 0.00 | 0.00 | 62 | 1010.9 |
| 20260510070521 | 64 | 59 | 7.0 | 11.0 | 0.00 | 0.00 | 0.00 | 62 | 1010.9 |
| 20260510070047 | 64 | 65 | 8.0 | 11.0 | 0.00 | 0.00 | 0.00 | 63 | 1010.9 |
| 20260510065523 | 64 | 65 | 7.0 | 11.0 | 0.00 | 0.00 | 0.00 | 63 | 1010.8 |
| 20260510065025 | 64 | 76 | 5.0 | 8.0 | 0.00 | 0.00 | 0.00 | 63 | 1011.0 |
| 20260510064544 | 64 | 56 | 5.0 | 9.0 | 0.00 | 0.00 | 0.00 | 62 | 1011.0 |
| 20260510064020 | 64 | 64 | 6.0 | 11.0 | 0.00 | 0.00 | 0.00 | 62 | 1010.9 |
| 20260510063522 | 64 | 52 | 5.0 | 11.0 | 0.00 | 0.00 | 0.00 | 62 | 1010.8 |
| 20260510063038 | 64 | 48 | 8.0 | 11.0 | 0.00 | 0.00 | 0.00 | 61 | 1010.8 |
| 20260510062522 | 64 | 30 | 6.0 | 11.0 | 0.00 | 0.00 | 0.00 | 60 | 1010.6 |
| 20260510062023 | 64 | 56 | 8.0 | 11.0 | 0.00 | 0.00 | 0.00 | 60 | 1010.2 |
| 20260510061537 | 65 | 59 | 5.0 | 8.0 | 0.00 | 0.00 | 0.00 | 59 | 1010.2 |
| 20260510061024 | 65 | 67 | 4.0 | 8.0 | 0.00 | 0.00 | 0.00 | 59 | 1010.2 |
| 20260510060523 | 65 | 66 | 5.0 | 9.0 | 0.00 | 0.00 | 0.00 | 58 | 1010.1 |
| 20260510060041 | 65 | 60 | 5.0 | 9.0 | 0.00 | 0.00 | 0.00 | 58 | 1010.1 |
| 20260510055530 | 65 | 41 | 5.0 | 12.0 | 0.00 | 0.00 | 0.00 | 58 | 1010.0 |
| 20260510055022 | 65 | 54 | 8.0 | 12.0 | 0.00 | 0.00 | 0.00 | 58 | 1009.8 |
| 20260510054539 | 66 | 38 | 7.0 | 12.0 | 0.00 | 0.00 | 0.00 | 57 | 1009.7 |
| 20260510054021 | 66 | 47 | 8.0 | 12.0 | 0.00 | 0.00 | 0.00 | 57 | 1009.5 |
| 20260510053520 | 66 | 48 | 8.0 | 12.0 | 0.00 | 0.00 | 0.00 | 57 | 1009.4 |
| 20260510053038 | 66 | 37 | 8.0 | 11.0 | 0.00 | 0.00 | 0.00 | 58 | 1009.4 |
| 20260510052520 | 66 | 38 | 8.0 | 11.0 | 0.00 | 0.00 | 0.00 | 58 | 1009.2 |
| 20260510052021 | 66 | 36 | 8.0 | 11.0 | 0.00 | 0.00 | 0.00 | 58 | 1009.1 |
| 20260510051538 | 66 | 38 | 6.0 | 9.0 | 0.00 | 0.00 | 0.00 | 58 | 1009.1 |
| 20260510051025 | 67 | 40 | 4.0 | 6.0 | 0.00 | 0.00 | 0.00 | 57 | 1009.1 |
| 20260510050523 | 67 | 40 | 3.0 | 6.0 | 0.00 | 0.00 | 0.00 | 57 | 1009.2 |
| 20260510050038 | 66 | 44 | 3.0 | 9.0 | 0.00 | 0.00 | 0.00 | 55 | 1009.0 |
| 20260510045521 | 66 | 60 | 5.0 | 9.0 | 0.00 | 0.00 | 0.00 | 58 | 1009.0 |
| 20260510045020 | 66 | 65 | 5.0 | 9.0 | 0.00 | 0.00 | 0.00 | 58 | 1009.1 |
| 20260510044537 | 66 | 54 | 4.0 | 8.0 | 0.00 | 0.00 | 0.00 | 58 | 1009.3 |
| 20260510044023 | 66 | 78 | 2.0 | 6.0 | 0.00 | 0.00 | 0.00 | 57 | 1009.2 |
| 20260510043522 | 67 | 144 | 2.0 | 6.0 | 0.00 | 0.00 | 0.00 | 57 | 1009.1 |
| 20260510043036 | 67 | 157 | 3.0 | 6.0 | 0.00 | 0.00 | 0.00 | 57 | 1009.2 |
| 20260510042522 | 67 | 180 | 3.0 | 6.0 | 0.00 | 0.00 | 0.00 | 54 | 1009.3 |
| 20260510042020 | 68 | 188 | 3.0 | 5.0 | 0.00 | 0.00 | 0.00 | 53 | 1009.6 |
| 20260510041535 | 68 | 193 | 0.0 | 3.0 | 0.00 | 0.00 | 0.00 | 54 | 1009.5 |
| 20260510041023 | 68 | 0 | 0.0 | 2.0 | 0.00 | 0.00 | 0.00 | 54 | 1009.4 |
| 20260510040521 | 69 | 0 | 0.0 | 2.0 | 0.00 | 0.00 | 0.00 | 55 | 1009.5 |
| 20260510040039 | 69 | 298 | 0.0 | 2.0 | 0.00 | 0.00 | 0.00 | 53 | 1009.4 |
| 20260510035522 | 70 | 0 | 0.0 | 2.0 | 0.00 | 0.00 | 0.00 | 50 | 1009.5 |
| 20260510035022 | 70 | 285 | 0.0 | 2.0 | 0.00 | 0.00 | 0.00 | 51 | 1009.5 |
| 20260510034537 | 70 | 0 | 0.0 | 3.0 | 0.00 | 0.00 | 0.00 | 49 | 1009.4 |
| 20260510034025 | 70 | 0 | 1.0 | 3.0 | 0.00 | 0.00 | 0.00 | 50 | 1009.5 |
| 20260510033520 | 71 | 286 | 0.0 | 3.0 | 0.00 | 0.00 | 0.00 | 49 | 1009.3 |
| 20260510033051 | 71 | 0 | 1.0 | 6.0 | 0.00 | 0.00 | 0.00 | 48 | 1009.3 |
| 20260510032523 | 71 | 110 | 2.0 | 8.0 | 0.00 | 0.00 | 0.00 | 47 | 1009.1 |
| 20260510032023 | 71 | 105 | 3.0 | 8.0 | 0.00 | 0.00 | 0.00 | 47 | 1009.1 |
| 20260510031539 | 71 | 121 | 6.0 | 8.0 | 0.00 | 0.00 | 0.00 | 48 | 1008.7 |
| 20260510031022 | 72 | 105 | 4.0 | 8.0 | 0.00 | 0.00 | 0.00 | 47 | 1008.7 |
| 20260510030521 | 72 | 110 | 5.0 | 8.0 | 0.00 | 0.00 | 0.00 | 46 | 1008.9 |
| 20260510030037 | 72 | 144 | 5.0 | 9.0 | 0.00 | 0.00 | 0.00 | 46 | 1009.1 |
| 20260510025525 | 72 | 144 | 5.0 | 9.0 | 0.00 | 0.00 | 0.00 | 46 | 1009.4 |
| 20260510025021 | 72 | 162 | 4.0 | 9.0 | 0.00 | 0.00 | 0.00 | 45 | 1009.4 |
| 20260510024536 | 72 | 168 | 5.0 | 9.0 | 0.00 | 0.00 | 0.00 | 45 | 1009.4 |
| 20260510024022 | 72 | 146 | 5.0 | 10.0 | 0.00 | 0.00 | 0.00 | 45 | 1009.5 |
| 20260510023521 | 72 | 238 | 5.0 | 10.0 | 0.00 | 0.00 | 0.00 | 45 | 1009.4 |
| 20260510023039 | 73 | 66 | 5.0 | 10.0 | 0.00 | 0.00 | 0.00 | 46 | 1009.4 |
| 20260510022522 | 73 | 344 | 4.0 | 9.0 | 0.00 | 0.00 | 0.00 | 45 | 1009.3 |
| 20260510022023 | 73 | 19 | 5.0 | 8.0 | 0.00 | 0.00 | 0.00 | 43 | 1009.5 |
| 20260510021625 | 73 | 343 | 3.0 | 6.0 | 0.00 | 0.00 | 0.00 | 43 | 1009.5 |
| 20260510021021 | 73 | 342 | 2.0 | 4.0 | 0.00 | 0.00 | 0.00 | 42 | 1009.4 |
| 20260510020522 | 73 | 317 | 1.0 | 4.0 | 0.00 | 0.00 | 0.00 | 42 | 1009.4 |
| 20260510020038 | 74 | 317 | 2.0 | 4.0 | 0.00 | 0.00 | 0.00 | 42 | 1009.2 |
| 20260510015521 | 74 | 317 | 2.0 | 4.0 | 0.00 | 0.00 | 0.00 | 41 | 1009.0 |
| 20260510015021 | 74 | 286 | 1.0 | 3.0 | 0.00 | 0.00 | 0.00 | 41 | 1008.7 |
| 20260510014548 | 74 | 174 | 0.0 | 3.0 | 0.00 | 0.00 | 0.00 | 41 | 1008.3 |
| 20260510014021 | 75 | 0 | 0.0 | 5.0 | 0.00 | 0.00 | 0.00 | 39 | 1008.2 |
| 20260510013524 | 75 | 0 | 2.0 | 8.0 | 0.00 | 0.00 | 0.00 | 39 | 1007.9 |
| 20260510013036 | 75 | 132 | 4.0 | 8.0 | 0.00 | 0.00 | 0.00 | 39 | 1007.7 |
| 20260510012522 | 75 | 177 | 4.0 | 8.0 | 0.00 | 0.00 | 0.00 | 39 | 1007.4 |
| 20260510012021 | 75 | 159 | 4.0 | 9.0 | 0.00 | 0.00 | 0.00 | 38 | 1007.2 |
| 20260510011538 | 76 | 171 | 4.0 | 9.0 | 0.00 | 0.00 | 0.00 | 38 | 1006.9 |
| 20260510011021 | 76 | 155 | 6.0 | 12.0 | 0.00 | 0.00 | 0.00 | 37 | 1006.8 |
| 20260510010522 | 76 | 146 | 5.0 | 13.0 | 0.00 | 0.00 | 0.00 | 37 | 1006.6 |
| 20260510010048 | 76 | 150 | 8.0 | 16.0 | 0.00 | 0.00 | 0.00 | 37 | 1006.5 |
| 20260510005523 | 76 | 159 | 9.0 | 16.0 | 0.00 | 0.00 | 0.00 | 37 | 1006.4 |
| 20260510005022 | 77 | 142 | 9.0 | 14.0 | 0.00 | 0.00 | 0.00 | 37 | 1006.3 |
| 20260510004538 | 78 | 185 | 8.0 | 13.0 | 0.00 | 0.00 | 0.00 | 36 | 1006.2 |
| 20260510004021 | 78 | 147 | 7.0 | 13.0 | 0.00 | 0.00 | 0.00 | 35 | 1006.0 |
| 20260510003521 | 79 | 164 | 6.0 | 12.0 | 0.00 | 0.00 | 0.00 | 34 | 1005.8 |
| 20260510003038 | 79 | 161 | 7.0 | 12.0 | 0.00 | 0.00 | 0.00 | 34 | 1005.8 |
| 20260510002522 | 80 | 150 | 7.0 | 12.0 | 0.00 | 0.00 | 0.00 | 33 | 1005.7 |
| 20260510002021 | 80 | 166 | 6.0 | 12.0 | 0.00 | 0.00 | 0.00 | 33 | 1005.7 |
| 20260510001537 | 81 | 148 | 7.0 | 15.0 | 0.00 | 0.00 | 0.00 | 32 | 1005.6 |
| 20260510001021 | 82 | 175 | 8.0 | 16.0 | 0.00 | 0.00 | 0.00 | 30 | 1005.7 |
| 20260510000521 | 82 | 157 | 8.0 | 16.0 | 0.00 | 0.00 | 0.00 | 31 | 1005.6 |
| 20260510000037 | 82 | 171 | 10.0 | 14.0 | 0.00 | 0.00 | 0.00 | 30 | 1005.6 |
| 20260509235521 | 82 | 149 | 7.0 | 14.0 | 0.00 | 0.00 | 0.00 | 30 | 1005.7 |
| 20260509235021 | 83 | 203 | 9.0 | 14.0 | 0.00 | 0.00 | 0.00 | 29 | 1005.7 |
| 20260509234539 | 83 | 130 | 8.0 | 12.0 | 0.00 | 0.00 | 0.00 | 28 | 1005.8 |
| 20260509234021 | 84 | 170 | 8.0 | 12.0 | 0.00 | 0.00 | 0.00 | 28 | 1005.8 |
| 20260509233520 | 84 | 167 | 8.0 | 13.0 | 0.00 | 0.00 | 0.00 | 28 | 1005.8 |
| 20260509233037 | 84 | 155 | 8.0 | 14.0 | 0.00 | 0.00 | 0.00 | 28 | 1005.9 |
| 20260509232524 | 84 | 190 | 8.0 | 14.0 | 0.00 | 0.00 | 0.00 | 28 | 1005.9 |
| 20260509232021 | 84 | 154 | 7.0 | 14.0 | 0.00 | 0.00 | 0.00 | 28 | 1005.9 |
| 20260509231537 | 85 | 154 | 8.0 | 15.0 | 0.00 | 0.00 | 0.00 | 27 | 1005.8 |
| 20260509231022 | 85 | 164 | 7.0 | 15.0 | 0.00 | 0.00 | 0.00 | 29 | 1005.9 |
| 20260509230522 | 85 | 189 | 8.0 | 15.0 | 0.00 | 0.00 | 0.00 | 27 | 1005.8 |
| 20260509230041 | 85 | 136 | 8.0 | 15.0 | 0.00 | 0.00 | 0.00 | 26 | 1005.8 |
| 20260509225522 | 85 | 159 | 10.0 | 14.0 | 0.00 | 0.00 | 0.00 | 25 | 1005.8 |
| 20260509225022 | 85 | 179 | 8.0 | 13.0 | 0.00 | 0.00 | 0.00 | 28 | 1005.8 |
| 20260509224536 | 85 | 151 | 7.0 | 16.0 | 0.00 | 0.00 | 0.00 | 27 | 1005.7 |
| 20260509224021 | 86 | 158 | 9.0 | 16.0 | 0.00 | 0.00 | 0.00 | 27 | 1005.8 |
| 20260509223523 | 86 | 153 | 8.0 | 16.0 | 0.00 | 0.00 | 0.00 | 26 | 1005.8 |
| 20260509223038 | 86 | 155 | 5.0 | 14.0 | 0.00 | 0.00 | 0.00 | 26 | 1005.8 |
| 20260509222520 | 86 | 164 | 7.0 | 16.0 | 0.00 | 0.00 | 0.00 | 24 | 1005.6 |
| 20260509222023 | 86 | 188 | 6.0 | 17.0 | 0.00 | 0.00 | 0.00 | 26 | 1005.6 |
| 20260509221541 | 86 | 163 | 8.0 | 17.0 | 0.00 | 0.00 | 0.00 | 26 | 1005.6 |
| 20260509221024 | 86 | 203 | 8.0 | 16.0 | 0.00 | 0.00 | 0.00 | 26 | 1005.5 |
| 20260509220525 | 86 | 165 | 8.0 | 16.0 | 0.00 | 0.00 | 0.00 | 25 | 1005.5 |
| 20260509220038 | 86 | 155 | 9.0 | 16.0 | 0.00 | 0.00 | 0.00 | 25 | 1005.4 |
| 20260509215523 | 87 | 235 | 4.0 | 18.0 | 0.00 | 0.00 | 0.00 | 22 | 1005.5 |
| 20260509215022 | 87 | 161 | 9.0 | 18.0 | 0.00 | 0.00 | 0.00 | 24 | 1005.5 |
| 20260509214539 | 87 | 184 | 5.0 | 14.0 | 0.00 | 0.00 | 0.00 | 27 | 1005.6 |
| 20260509214020 | 86 | 157 | 5.0 | 14.0 | 0.00 | 0.00 | 0.00 | 26 | 1005.6 |
| 20260509213522 | 86 | 151 | 4.0 | 13.0 | 0.00 | 0.00 | 0.00 | 25 | 1005.6 |
| 20260509213038 | 87 | 185 | 7.0 | 12.0 | 0.00 | 0.00 | 0.00 | 26 | 1005.7 |
| 20260509212524 | 87 | 150 | 5.0 | 12.0 | 0.00 | 0.00 | 0.00 | 26 | 1005.8 |
| 20260509212024 | 87 | 126 | 7.0 | 12.0 | 0.00 | 0.00 | 0.00 | 24 | 1005.8 |
| 20260509211539 | 87 | 158 | 5.0 | 9.0 | 0.00 | 0.00 | 0.00 | 25 | 1005.9 |
| 20260509211021 | 87 | 267 | 4.0 | 11.0 | 0.00 | 0.00 | 0.00 | 23 | 1005.8 |
| 20260509210521 | 87 | 135 | 3.0 | 12.0 | 0.00 | 0.00 | 0.00 | 25 | 1005.9 |
| 20260509210043 | 87 | 188 | 7.0 | 12.0 | 0.00 | 0.00 | 0.00 | 24 | 1006.1 |
| 20260509205520 | 87 | 161 | 3.0 | 10.0 | 0.00 | 0.00 | 0.00 | 24 | 1006.1 |
| 20260509205021 | 87 | 190 | 3.0 | 12.0 | 0.00 | 0.00 | 0.00 | 24 | 1006.1 |
| 20260509204541 | 86 | 161 | 5.0 | 12.0 | 0.00 | 0.00 | 0.00 | 24 | 1006.1 |
| 20260509204021 | 85 | 153 | 1.0 | 12.0 | 0.00 | 0.00 | 0.00 | 24 | 1006.2 |
| 20260509203520 | 86 | 155 | 6.0 | 18.0 | 0.00 | 0.00 | 0.00 | 26 | 1006.5 |
| 20260509203037 | 86 | 151 | 6.0 | 18.0 | 0.00 | 0.00 | 0.00 | 23 | 1006.5 |
| 20260509202520 | 87 | 157 | 11.0 | 14.0 | 0.00 | 0.00 | 0.00 | 24 | 1006.5 |
| 20260509202023 | 87 | 133 | 8.0 | 14.0 | 0.00 | 0.00 | 0.00 | 27 | 1006.5 |
| 20260509201540 | 86 | 186 | 8.0 | 14.0 | 0.00 | 0.00 | 0.00 | 30 | 1006.6 |
| 20260509201022 | 85 | 183 | 5.0 | 14.0 | 0.00 | 0.00 | 0.00 | 25 | 1006.6 |
| 20260509200521 | 86 | 139 | 5.0 | 14.0 | 0.00 | 0.00 | 0.00 | 24 | 1006.8 |
| 20260509200039 | 87 | 154 | 6.0 | 14.0 | 0.00 | 0.00 | 0.00 | 24 | 1006.8 |
| 20260509195524 | 88 | 171 | 6.0 | 14.0 | 0.00 | 0.00 | 0.00 | 23 | 1006.8 |
| 20260509195021 | 87 | 188 | 6.0 | 13.0 | 0.00 | 0.00 | 0.00 | 25 | 1006.9 |
| 20260509194551 | 87 | 218 | 4.0 | 14.0 | 0.00 | 0.00 | 0.00 | 21 | 1007.0 |
| 20260509194021 | 88 | 151 | 9.0 | 15.0 | 0.00 | 0.00 | 0.00 | 25 | 1007.0 |
| 20260509193522 | 87 | 190 | 9.0 | 15.0 | 0.00 | 0.00 | 0.00 | 25 | 1007.1 |
| 20260509193036 | 86 | 133 | 2.0 | 9.0 | 0.00 | 0.00 | 0.00 | 26 | 1007.2 |
| 20260509192522 | 86 | 53 | 2.0 | 10.0 | 0.00 | 0.00 | 0.00 | 22 | 1007.2 |
| 20260509192021 | 86 | 178 | 4.0 | 11.0 | 0.00 | 0.00 | 0.00 | 22 | 1007.3 |
| 20260509191535 | 86 | 220 | 6.0 | 11.0 | 0.00 | 0.00 | 0.00 | 21 | 1007.2 |
| 20260509191023 | 86 | 207 | 4.0 | 11.0 | 0.00 | 0.00 | 0.00 | 24 | 1007.4 |
| 20260509190520 | 86 | 257 | 5.0 | 11.0 | 0.00 | 0.00 | 0.00 | 24 | 1007.4 |
| 20260509190040 | 86 | 263 | 3.0 | 9.0 | 0.00 | 0.00 | 0.00 | 23 | 1007.4 |
| 20260509185521 | 86 | 313 | 4.0 | 9.0 | 0.00 | 0.00 | 0.00 | 24 | 1007.5 |
| 20260509185022 | 86 | 299 | 5.0 | 10.0 | 0.00 | 0.00 | 0.00 | 24 | 1007.5 |
| 20260509184538 | 85 | 296 | 5.0 | 12.0 | 0.00 | 0.00 | 0.00 | 26 | 1007.5 |
| 20260509184020 | 85 | 234 | 5.0 | 12.0 | 0.00 | 0.00 | 0.00 | 24 | 1007.6 |
| 20260509183522 | 85 | 236 | 4.0 | 9.0 | 0.00 | 0.00 | 0.00 | 23 | 1007.6 |
| 20260509183038 | 85 | 264 | 3.0 | 15.0 | 0.00 | 0.00 | 0.00 | 24 | 1007.7 |
| 20260509182521 | 85 | 261 | 6.0 | 15.0 | 0.00 | 0.00 | 0.00 | 25 | 1007.8 |
| 20260509182022 | 85 | 232 | 5.0 | 13.0 | 0.00 | 0.00 | 0.00 | 26 | 1007.9 |
| 20260509181538 | 85 | 197 | 8.0 | 16.0 | 0.00 | 0.00 | 0.00 | 25 | 1008.0 |
| 20260509181021 | 84 | 239 | 9.0 | 16.0 | 0.00 | 0.00 | 0.00 | 25 | 1008.0 |
| 20260509180522 | 84 | 230 | 3.0 | 14.0 | 0.00 | 0.00 | 0.00 | 27 | 1008.1 |
| 20260509180050 | 85 | 200 | 7.0 | 15.0 | 0.00 | 0.00 | 0.00 | 29 | 1008.1 |
| 20260509175522 | 85 | 182 | 8.0 | 15.0 | 0.00 | 0.00 | 0.00 | 28 | 1008.2 |
| 20260509175022 | 84 | 232 | 6.0 | 14.0 | 0.00 | 0.00 | 0.00 | 27 | 1008.3 |
| 20260509174540 | 84 | 224 | 5.0 | 12.0 | 0.00 | 0.00 | 0.00 | 24 | 1008.3 |
| 20260509174021 | 84 | 211 | 5.0 | 12.0 | 0.00 | 0.00 | 0.00 | 25 | 1008.3 |
| 20260509173520 | 84 | 186 | 7.0 | 13.0 | 0.00 | 0.00 | 0.00 | 27 | 1008.3 |
| 20260509173053 | 84 | 274 | 6.0 | 14.0 | 0.00 | 0.00 | 0.00 | 26 | 1008.3 |
| 20260509172525 | 84 | 258 | 7.0 | 17.0 | 0.00 | 0.00 | 0.00 | 27 | 1008.4 |
| 20260509172023 | 84 | 297 | 8.0 | 17.0 | 0.00 | 0.00 | 0.00 | 26 | 1008.5 |
| 20260509171541 | 83 | 256 | 9.0 | 16.0 | 0.00 | 0.00 | 0.00 | 28 | 1008.5 |
| 20260509171020 | 83 | 234 | 9.0 | 16.0 | 0.00 | 0.00 | 0.00 | 26 | 1008.5 |
| 20260509170520 | 82 | 254 | 8.0 | 15.0 | 0.00 | 0.00 | 0.00 | 26 | 1008.6 |
| 20260509170038 | 82 | 254 | 9.0 | 17.0 | 0.00 | 0.00 | 0.00 | 26 | 1008.7 |
| 20260509165521 | 82 | 276 | 10.0 | 17.0 | 0.00 | 0.00 | 0.00 | 27 | 1008.6 |
| 20260509165021 | 82 | 300 | 9.0 | 15.0 | 0.00 | 0.00 | 0.00 | 27 | 1008.6 |
| 20260509164537 | 82 | 256 | 6.0 | 16.0 | 0.00 | 0.00 | 0.00 | 29 | 1008.6 |
| 20260509164021 | 81 | 257 | 8.0 | 18.0 | 0.00 | 0.00 | 0.00 | 30 | 1008.7 |
| 20260509163525 | 82 | 273 | 10.0 | 18.0 | 0.00 | 0.00 | 0.00 | 28 | 1008.7 |
| 20260509163037 | 81 | 226 | 7.0 | 14.0 | 0.00 | 0.00 | 0.00 | 33 | 1008.8 |
| 20260509162521 | 81 | 247 | 5.0 | 14.0 | 0.00 | 0.00 | 0.00 | 33 | 1008.9 |
| 20260509162050 | 81 | 238 | 5.0 | 13.0 | 0.00 | 0.00 | 0.00 | 36 | 1008.9 |
| 20260509161552 | 80 | 249 | 7.0 | 13.0 | 0.00 | 0.00 | 0.00 | 35 | 1008.9 |
| 20260509161022 | 80 | 280 | 7.0 | 13.0 | 0.00 | 0.00 | 0.00 | 38 | 1008.9 |
| 20260509160523 | 79 | 219 | 7.0 | 11.0 | 0.00 | 0.00 | 0.00 | 38 | 1008.8 |
| 20260509160039 | 80 | 229 | 5.0 | 11.0 | 0.00 | 0.00 | 0.00 | 38 | 1008.8 |
| 20260509155522 | 80 | 208 | 7.0 | 11.0 | 0.00 | 0.00 | 0.00 | 39 | 1008.7 |
| 20260509155022 | 79 | 211 | 5.0 | 11.0 | 0.00 | 0.00 | 0.00 | 40 | 1008.6 |
| 20260509154545 | 78 | 279 | 6.0 | 14.0 | 0.00 | 0.00 | 0.00 | 38 | 1008.7 |
| 20260509154022 | 78 | 221 | 8.0 | 14.0 | 0.00 | 0.00 | 0.00 | 41 | 1008.7 |
| 20260509153521 | 77 | 238 | 9.0 | 14.0 | 0.00 | 0.00 | 0.00 | 38 | 1008.7 |
| 20260509153052 | 77 | 236 | 6.0 | 13.0 | 0.00 | 0.00 | 0.00 | 42 | 1008.6 |
| 20260509152521 | 76 | 257 | 9.0 | 13.0 | 0.00 | 0.00 | 0.00 | 43 | 1008.6 |
| 20260509152021 | 76 | 259 | 6.0 | 12.0 | 0.00 | 0.00 | 0.00 | 44 | 1008.6 |
| 20260509151537 | 75 | 236 | 6.0 | 14.0 | 0.00 | 0.00 | 0.00 | 44 | 1008.6 |
| 20260509151021 | 75 | 240 | 8.0 | 14.0 | 0.00 | 0.00 | 0.00 | 44 | 1008.6 |
| 20260509150521 | 74 | 193 | 6.0 | 14.0 | 0.00 | 0.00 | 0.00 | 47 | 1008.6 |
| 20260509150037 | 73 | 221 | 5.0 | 10.0 | 0.00 | 0.00 | 0.00 | 51 | 1008.5 |
| 20260509145523 | 72 | 236 | 3.0 | 10.0 | 0.00 | 0.00 | 0.00 | 52 | 1008.5 |
| 20260509145021 | 71 | 270 | 5.0 | 10.0 | 0.00 | 0.00 | 0.00 | 52 | 1008.4 |
| 20260509144544 | 71 | 240 | 7.0 | 12.0 | 0.00 | 0.00 | 0.00 | 54 | 1008.5 |
| 20260509144021 | 71 | 225 | 6.0 | 13.0 | 0.00 | 0.00 | 0.00 | 55 | 1008.6 |
| 20260509143521 | 70 | 255 | 6.0 | 13.0 | 0.00 | 0.00 | 0.00 | 57 | 1008.6 |
| 20260509143040 | 69 | 220 | 4.0 | 8.0 | 0.00 | 0.00 | 0.00 | 59 | 1008.5 |
| 20260509142520 | 68 | 247 | 3.0 | 10.0 | 0.00 | 0.00 | 0.00 | 61 | 1008.4 |
| 20260509142020 | 67 | 0 | 4.0 | 10.0 | 0.00 | 0.00 | 0.00 | 64 | 1008.3 |
| 20260509141541 | 66 | 249 | 3.0 | 7.0 | 0.00 | 0.00 | 0.00 | 68 | 1008.3 |
| 20260509141023 | 65 | 250 | 2.0 | 7.0 | 0.00 | 0.00 | 0.00 | 70 | 1008.3 |
| 20260509140521 | 64 | 249 | 4.0 | 8.0 | 0.00 | 0.00 | 0.00 | 72 | 1008.3 |
| 20260509140052 | 63 | 242 | 2.0 | 8.0 | 0.00 | 0.00 | 0.00 | 76 | 1008.3 |
| 20260509135521 | 62 | 234 | 4.0 | 8.0 | 0.00 | 0.00 | 0.00 | 81 | 1008.4 |
| 20260509135021 | 61 | 249 | 2.0 | 8.0 | 0.00 | 0.00 | 0.00 | 85 | 1008.3 |
| 20260509134538 | 60 | 199 | 4.0 | 8.0 | 0.00 | 0.00 | 0.00 | 88 | 1008.5 |
| 20260509134023 | 59 | 178 | 1.0 | 4.0 | 0.00 | 0.00 | 0.00 | 90 | 1008.5 |
| 20260509133521 | 58 | 221 | 1.0 | 5.0 | 0.00 | 0.00 | 0.00 | 91 | 1008.6 |
| 20260509133039 | 57 | 237 | 1.0 | 5.0 | 0.00 | 0.00 | 0.00 | 92 | 1008.6 |
| 20260509132522 | 56 | 241 | 3.0 | 5.0 | 0.00 | 0.00 | 0.00 | 92 | 1008.6 |
| 20260509132022 | 55 | 251 | 2.0 | 4.0 | 0.00 | 0.00 | 0.00 | 93 | 1008.6 |
| 20260509131537 | 55 | 247 | 1.0 | 3.0 | 0.00 | 0.00 | 0.00 | 93 | 1008.5 |
| 20260509131024 | 54 | 0 | 0.0 | 3.0 | 0.00 | 0.00 | 0.00 | 93 | 1008.4 |
| 20260509130521 | 53 | 236 | 0.0 | 3.0 | 0.00 | 0.00 | 0.00 | 93 | 1008.4 |
| 20260509130037 | 53 | 0 | 1.0 | 4.0 | 0.00 | 0.00 | 0.00 | 93 | 1008.3 |
| 20260509125522 | 53 | 162 | 0.0 | 4.0 | 0.00 | 0.00 | 0.00 | 94 | 1008.3 |
| 20260509125020 | 52 | 162 | 1.0 | 6.0 | 0.00 | 0.00 | 0.00 | 94 | 1008.3 |
| 20260509124544 | 51 | 0 | 0.0 | 6.0 | 0.00 | 0.00 | 0.00 | 94 | 1008.2 |
| 20260509124021 | 51 | 162 | 4.0 | 6.0 | 0.00 | 0.00 | 0.00 | 94 | 1008.2 |
| 20260509123521 | 50 | 0 | 0.0 | 0.0 | 0.00 | 0.00 | 0.00 | 93 | 1008.1 |
| 20260509123039 | 50 | 0 | 0.0 | 1.0 | 0.00 | 0.00 | 0.00 | 93 | 1008.0 |
| 20260509122521 | 49 | 0 | 0.0 | 2.0 | 0.00 | 0.00 | 0.00 | 93 | 1007.9 |
| 20260509122021 | 49 | 0 | 0.0 | 3.0 | 0.00 | 0.00 | 0.00 | 93 | 1007.9 |
| 20260509121537 | 48 | 242 | 1.0 | 3.0 | 0.00 | 0.00 | 0.00 | 93 | 1007.8 |
| 20260509121021 | 48 | 242 | 2.0 | 3.0 | 0.00 | 0.00 | 0.00 | 93 | 1008.0 |
| 20260509120521 | 48 | 194 | 1.0 | 3.0 | 0.00 | 0.00 | 0.00 | 92 | 1007.9 |
| 20260509120040 | 48 | 194 | 1.0 | 3.0 | 0.00 | 0.00 | 0.00 | 92 | 1007.8 |
| 20260509115520 | 48 | 192 | 2.0 | 3.0 | 0.00 | 0.00 | 0.00 | 92 | 1007.8 |
| 20260509115021 | 48 | 192 | 1.0 | 4.0 | 0.00 | 0.00 | 0.00 | 92 | 1007.8 |
| 20260509114538 | 48 | 192 | 2.0 | 4.0 | 0.00 | 0.00 | 0.00 | 92 | 1007.8 |
| 20260509114021 | 48 | 192 | 3.0 | 4.0 | 0.00 | 0.00 | 0.00 | 92 | 1007.6 |
| 20260509113521 | 48 | 257 | 2.0 | 3.0 | 0.00 | 0.00 | 0.00 | 92 | 1007.6 |
| 20260509113038 | 48 | 257 | 1.0 | 3.0 | 0.00 | 0.00 | 0.00 | 92 | 1007.6 |
| 20260509112523 | 48 | 257 | 0.0 | 2.0 | 0.00 | 0.00 | 0.00 | 92 | 1007.5 |
| 20260509112021 | 48 | 0 | 0.0 | 2.0 | 0.00 | 0.00 | 0.00 | 92 | 1007.5 |
| 20260509111538 | 47 | 0 | 0.0 | 2.0 | 0.00 | 0.00 | 0.00 | 92 | 1007.4 |
| 20260509111021 | 47 | 257 | 0.0 | 2.0 | 0.00 | 0.00 | 0.00 | 92 | 1007.3 |
| 20260509110522 | 47 | 0 | 0.0 | 3.0 | 0.00 | 0.00 | 0.00 | 92 | 1007.4 |
| 20260509110037 | 47 | 257 | 0.0 | 3.0 | 0.00 | 0.00 | 0.00 | 92 | 1007.4 |
| 20260509105522 | 47 | 257 | 1.0 | 4.0 | 0.00 | 0.00 | 0.00 | 91 | 1007.5 |